Retour au catalogue

STARLINK-31629

ActifCommunicationsVLEO
NORAD 59255·PAYLOAD·🇺🇸 United States

Lancé Mar 19, 2024 depuis Vandenberg Space Force Base

Loading…

Prochains Passages (prochaines 24 heures)

TLE

FraisSource: CelesTrak SupGP

Époque: Sep 15, 2026, 02:38 UTC

1 59255C 24050B   26258.11020833  .00030065  00000+0  88825-3 0  2583
2 59255  53.1611  20.6848 0001095  86.8224  11.4298 15.34376527    17

Suivez STARLINK-31629 en temps réel avec AllMySat

Download on the App Store